GPS BIIF-12 (PRN 32)

Last updated on Sun Sep 20 2026 00:03:18 GMT+0000 (Coordinated Universal Time)

1 41328U 16007A 26261.59930688 .00000005 00000+0 00000+0 0 9990 2 41328 55.5881 85.7564 0097723 247.2828 111.7321 2.00572654 77717
UTC large
Height (km)
Speed (km/s)
/
Latitude / Longitude
Inclination (degrees)
Orbital Period (minutes)
Azimuth
Elevation
Range (km)
Doppler Factor

Next 0 passes for location: London (51.5072 / 0.1276)

No passes found over London.
GPS BIIF-12 (PRN 32)